Theta_e
324 324 323 323 322 322 322 323 324 324 324 325 327 327 326 324 323 322 322 319 319 319
325 324 323 322 322 322 322 322 325 325 325 326 327 327 326 325 323 322 321 322 321 320
324 325 324 324 323 323 322 324 324 325 325 325 325 326 326 325 325 322 320 321 322 323
324 325 323 322 323 323 322 324 325 326 326 326 325 325 324 325 324 322 321 318 320 321
324 323 322 323 323 321 321 322 324 326 327 327 324 323 323 324 324 322 322 320 319 321
323 323 322 322 322 321 321 322 322 325 325 325 324 327 327 327 326 323 322 322 319 320
323 323 322 322 322 324 324 326 324 325 325 326 325 326 328 327 324 325 324 324 322 323
324 323 323 322 324 325 326 326 327 325 324 322 321 318 319 327 324 320 319 323 325 324
325 324 322 322 326 325 325 326 326 323 322 318 319 302 307 319 322 321 323 322 321 321
326 324 323 322 322 324 324 325 322 319 318 315 313 300 304 311 321 322 324 323 322 321
328 324 323 322 321 320 320 325 319 317 315 313 313 301 304 308 321 322 323 324 323 320
326 324 324 322 321 320 320 319 319 318 315 314 315 301 304 315 321 321 323 324 324 322
325 325 323 322 321 321 324 322 323 319 317 312 315 300 303 316 323 322 322 323 320 308
324 324 323 322 322 322 322 322 321 319 316 315 314 310 302 307 321 322 321 321 320 315
Wind_Speed
8 6 5 5 4 4 3 3 3 4 4 5 5 5 4 3 4 5 4 6 5 4
7 8 6 7 5 3 4 3 4 4 4 3 3 3 2 3 3 3 4 3 5 4
8 7 6 6 6 5 4 4 4 3 3 2 2 2 3 1 4 5 2 1 3 2
6 7 6 6 5 6 4 5 5 4 3 3 2 1 3 3 4 4 2 2 3 3
7 7 6 6 6 5 5 4 4 4 3 3 2 1 3 3 5 5 4 3 3 4
7 7 6 6 6 5 5 4 3 5 4 3 1 0 0 3 4 5 5 4 4 4
7 7 6 5 4 5 3 4 5 6 4 3 2 4 4 2 3 5 4 3 3 5
5 6 6 5 3 1 5 3 6 6 5 4 4 4 4 5 4 6 5 4 4 5
7 6 6 5 4 5 3 5 6 6 5 5 3 8 6 5 5 5 4 6 6 6
8 6 6 6 5 5 5 6 6 6 5 5 3 8 7 8 5 5 4 5 7 7
9 7 6 6 6 4 3 6 6 5 5 4 2 6 7 9 6 6 6 5 7 9
9 7 7 6 6 4 4 5 5 5 6 5 2 6 6 8 5 7 7 6 7 8
9 7 7 7 6 3 4 5 5 5 5 6 5 4 6 7 6 8 6 5 7 10
7 9 8 6 3 4 5 5 5 6 4 4 4 3 7 11 5 7 7 5 6 5
Wind_Direction
109 117 122 137 143 159 180 161 166 167 187 210 219 221 210 202 202 203 214 213 215 209
113 113 126 130 131 146 129 156 168 177 196 233 229 194 202 219 222 192 190 204 203 206
125 122 129 130 130 140 152 153 163 179 194 166 116 132 137 133 103 131 169 142 176 135
137 127 130 136 150 153 172 173 177 187 180 150 153 125 92 161 141 136 137 87 127 111
132 129 141 157 159 160 151 181 180 169 156 157 151 89 123 159 171 156 144 124 118 136
137 142 149 161 160 169 172 185 173 147 153 160 174 89 143 225 171 175 151 138 151 169
156 152 157 166 175 174 209 219 152 142 153 117 54 37 8 141 98 127 139 134 134 145
148 141 152 162 175 216 183 158 130 123 102 83 54 25 357 101 123 104 103 93 115 116
139 149 154 154 127 97 141 113 113 116 119 90 51 350 38 109 100 86 91 94 86 104
143 152 165 154 139 121 126 108 108 115 117 106 77 10 80 100 93 98 97 95 102 94
148 162 161 149 142 136 129 132 132 130 123 111 54 17 108 106 103 92 84 82 106 118
149 156 157 160 152 153 138 132 138 139 134 127 91 29 117 112 100 101 102 97 111 125
155 159 162 159 164 155 144 138 133 129 143 147 136 39 143 123 116 120 115 95 96 96
154 167 161 146 132 147 134 123 121 121 124 143 134 90 142 122 120 133 126 120 117 122